Lacon, IL

8:47 AM CST on February 09, 2016 (GMT -0600)
Lacon

Weather History for KC75 - February, 2012

Change the Weather History Date:

Monday, February 13, 2012

  Actual Average (KPIA) Record (KPIA)
Temperature  
Mean Temperature 26 °F 29 °F  
Max Temperature 36 °F 37 °F 65 °F (1938)
Min Temperature 17 °F 21 °F -26 °F (1905)
Degree Days  
Heating Degree Days 38 36  
Month to date heating degree days 492  
Since 1 July heating degree days 4013  
Cooling Degree Days 0 0  
Month to date cooling degree days 0  
Year to date cooling degree days 0  
Moisture  
Dew Point 19 °F    
Average Humidity 69    
Maximum Humidity 94    
Minimum Humidity 41    
Precipitation  
Precipitation 0.00 in 0.06 in 0.90 in (1883)
Month to date precipitation 0.74  
Year to date precipitation 2.52  
Snow  
Snow 0.00 in 0.20 in 7.00 in (2007)
Month to date snowfall 3.1  
Since 1 July snowfall 18.2  
Snow Depth -    
Sea Level Pressure  
Sea Level Pressure 30.08 in    
Wind  
Wind Speed 4 mph (SSE)    
Max Wind Speed 15 mph    
Max Gust Speed 22 mph    
Visibility 8 miles    
Events Rain , Snow    
T = Trace of Precipitation, MM = Missing Value Source: NWS Daily Summary

Daily Weather History Graph

Daily Weather History Graph

Search for Another Location

Airport or City:

Trip Planner

Search our weather history database for the weather conditions in past years. The results will help you decide how hot, cold, wet, or windy it might be!

Date:

Astronomy

Feb. 13, 2012 Rise Set
Actual Time 6:54 AM CST 5:28 PM CST
Civil Twilight 6:26 AM CST 5:57 PM CST
Nautical Twilight 5:54 AM CST 6:29 PM CST
Astronomical Twilight 5:22 AM CST 7:01 PM CST
Moon No Moon Rise 9:49 AM CST (2/13)
Length of Visible Light 11h 30m
Length of Day
10h 33m
Waning Gibbous, 61% of the Moon is Illuminated
Feb 13
Waning Gibbous
Feb 14
Last Quarter
Feb 21
New
Feb 29
First Quarter
Mar 8
Full

Hourly Weather History & Observations

Time (CST) Temp. Windchill Dew Point Humidity Pressure Visibility Wind Dir Wind Speed Gust Speed Precip Events Conditions
12:15 AM 17.1 °F - 9.3 °F 72% 30.25 in 10.0 mi Calm Calm - N/A   Scattered Clouds
12:35 AM 17.8 °F - 9.7 °F 71% 30.24 in 10.0 mi Calm Calm - N/A   Scattered Clouds
12:55 AM 18.7 °F - 10.9 °F 72% 30.23 in 10.0 mi Calm Calm - N/A   Clear
1:15 AM 19.2 °F - 10.9 °F 70% 30.23 in 10.0 mi Calm Calm - N/A   Clear
1:35 AM 18.3 °F - 11.1 °F 73% 30.22 in 10.0 mi Calm Calm - N/A   Clear
1:55 AM 17.4 °F - 10.4 °F 74% 30.22 in 10.0 mi Calm Calm - N/A   Clear
2:15 AM 17.4 °F - 12.0 °F 79% 30.22 in 10.0 mi Calm Calm - N/A   Clear
2:35 AM 18.5 °F - 12.7 °F 78% 30.21 in 10.0 mi Calm Calm - N/A   Mostly Cloudy
2:55 AM 19.2 °F - 14.4 °F 81% 30.20 in 10.0 mi Calm Calm - N/A   Overcast
3:15 AM 21.0 °F - 16.3 °F 82% 30.18 in 10.0 mi Calm Calm - N/A   Overcast
3:35 AM 21.7 °F - 16.5 °F 80% 30.18 in 10.0 mi Calm Calm - N/A   Overcast
3:55 AM 21.7 °F - 18.0 °F 85% 30.18 in 10.0 mi Calm Calm - N/A   Overcast
4:15 AM 22.8 °F 18.2 °F 17.8 °F 81% 30.17 in 10.0 mi ESE 3.5 mph - N/A   Overcast
4:35 AM 24.8 °F 19.1 °F 14.4 °F 65% 30.17 in 10.0 mi ESE 4.6 mph - N/A   Overcast
4:55 AM 24.8 °F 20.5 °F 14.7 °F 66% 30.16 in 10.0 mi ESE 3.5 mph - N/A   Overcast
5:15 AM 24.8 °F - 15.8 °F 69% 30.16 in 10.0 mi Calm Calm - N/A   Overcast
5:35 AM 25.0 °F - 16.0 °F 69% 30.17 in 10.0 mi Calm Calm - N/A   Overcast
5:55 AM 25.5 °F 21.3 °F 15.4 °F 66% 30.16 in 10.0 mi SSE 3.5 mph - N/A   Overcast
6:15 AM 25.7 °F 21.5 °F 15.4 °F 65% 30.16 in 10.0 mi SSE 3.5 mph - N/A   Overcast
6:35 AM 26.6 °F 21.2 °F 14.5 °F 60% 30.16 in 10.0 mi SSE 4.6 mph - N/A   Overcast
6:55 AM 27.1 °F 23.2 °F 13.8 °F 57% 30.16 in 10.0 mi SSE 3.5 mph - N/A   Overcast
7:15 AM 27.5 °F 23.6 °F 13.6 °F 56% 30.16 in 10.0 mi SSE 3.5 mph - N/A   Overcast
7:35 AM 28.0 °F 24.2 °F 13.1 °F 54% 30.15 in 10.0 mi SE 3.5 mph - N/A   Overcast
7:55 AM 28.4 °F 24.6 °F 14.0 °F 55% 30.15 in 10.0 mi SSE 3.5 mph - N/A   Mostly Cloudy
8:15 AM 29.1 °F - 13.1 °F 51% 30.14 in 10.0 mi Calm Calm - N/A   Mostly Cloudy
8:35 AM 30.0 °F 25.2 °F 12.9 °F 49% 30.14 in 10.0 mi SE 4.6 mph - N/A   Mostly Cloudy
8:55 AM 30.2 °F 25.4 °F 13.6 °F 50% 30.13 in 10.0 mi SE 4.6 mph - N/A   Mostly Cloudy
9:15 AM 30.6 °F 27.1 °F 15.3 °F 53% 30.12 in 10.0 mi SE 3.5 mph - N/A   Overcast
9:35 AM 31.5 °F 24.9 °F 14.7 °F 50% 30.11 in 10.0 mi SE 6.9 mph - N/A   Mostly Cloudy
9:55 AM 32.0 °F 25.6 °F 14.0 °F 48% 30.11 in 10.0 mi SSE 6.9 mph - N/A   Mostly Cloudy
10:15 AM 32.7 °F 25.7 °F 13.5 °F 45% 30.10 in 10.0 mi SSE 8.1 mph - N/A   Overcast
10:35 AM 33.4 °F 28.1 °F 13.1 °F 43% 30.09 in 10.0 mi South 5.8 mph - N/A   Mostly Cloudy
10:55 AM 34.7 °F 26.9 °F 13.1 °F 41% 30.08 in 10.0 mi South 10.4 mph - N/A   Scattered Clouds
11:15 AM 34.3 °F 26.5 °F 14.4 °F 44% 30.07 in 10.0 mi South 10.4 mph - N/A   Scattered Clouds
11:35 AM 35.4 °F 29.0 °F 16.5 °F 46% 30.05 in 10.0 mi South 8.1 mph - N/A   Scattered Clouds
11:55 AM 36.1 °F 27.3 °F 15.8 °F 44% 30.04 in 10.0 mi South 13.8 mph - N/A   Mostly Cloudy
12:15 PM 35.8 °F 26.9 °F 16.0 °F 45% 30.03 in 10.0 mi South 13.8 mph 19.6 mph N/A   Scattered Clouds
12:35 PM 35.1 °F 26.9 °F 22.1 °F 59% 30.01 in 10.0 mi South 11.5 mph - N/A   Scattered Clouds
12:55 PM 35.1 °F 25.9 °F 23.4 °F 62% 30.00 in 10.0 mi SSE 13.8 mph - N/A   Mostly Cloudy
1:15 PM 35.4 °F 26.8 °F 25.9 °F 68% 29.99 in 10.0 mi South 12.7 mph 19.6 mph N/A   Mostly Cloudy
1:35 PM 35.8 °F 26.5 °F 27.1 °F 71% 29.98 in 10.0 mi SSE 15.0 mph 21.9 mph N/A Rain Light Rain
1:55 PM 36.3 °F 28.4 °F 27.3 °F 70% 29.97 in 10.0 mi SSE 11.5 mph 17.3 mph N/A Rain Light Rain
2:15 PM 34.7 °F 26.4 °F 27.0 °F 73% 29.96 in 10.0 mi SSE 11.5 mph 17.3 mph N/A Rain Rain
2:35 PM 34.0 °F 25.5 °F 27.7 °F 78% 29.95 in 7.0 mi SE 11.5 mph - N/A Snow Light Snow
2:55 PM 32.4 °F 24.0 °F 29.3 °F 88% 29.94 in 2.5 mi SSE 10.4 mph 17.3 mph N/A Rain Heavy Rain
3:15 PM 32.0 °F 22.5 °F 29.8 °F 92% 29.94 in 1.8 mi SSE 12.7 mph - N/A Snow Light Snow
3:35 PM 31.6 °F 24.4 °F 30.0 °F 94% 29.93 in 1.5 mi SE 8.1 mph - N/A Snow Light Snow
3:55 PM 31.6 °F 23.1 °F 29.8 °F 93% 29.92 in 2.0 mi SSE 10.4 mph 17.3 mph N/A   Overcast
4:15 PM 31.6 °F 24.4 °F 29.7 °F 92% 29.92 in 2.0 mi SSE 8.1 mph 17.3 mph N/A Snow Light Snow
4:35 PM 31.3 °F 22.7 °F 29.5 °F 93% 29.91 in 3.0 mi SSE 10.4 mph - N/A   Overcast
4:55 PM 31.5 °F 23.5 °F 29.3 °F 92% 29.91 in 2.0 mi SSE 9.2 mph 17.3 mph N/A Snow Light Snow
5:15 PM 31.3 °F 23.9 °F 29.5 °F 93% 29.90 in 2.0 mi SSE 8.1 mph - N/A Snow Light Snow
5:35 PM 31.1 °F 21.9 °F 29.3 °F 93% 29.90 in 1.8 mi SSE 11.5 mph 17.3 mph N/A Snow Light Snow
5:55 PM 30.9 °F 21.7 °F 29.3 °F 94% 29.90 in 2.5 mi SSE 11.5 mph - N/A Snow Light Snow
6:15 PM 30.9 °F 22.8 °F 29.3 °F 94% 29.90 in 4.0 mi SSE 9.2 mph - N/A Rain Light Freezing Rain
6:35 PM 31.1 °F 21.9 °F 29.3 °F 93% 29.90 in 10.0 mi SSE 11.5 mph 18.4 mph N/A   Light Freezing Rain
6:55 PM 31.1 °F 21.4 °F 28.4 °F 90% 29.90 in 10.0 mi SSE 12.7 mph - N/A   Light Freezing Rain
7:15 PM 30.9 °F 21.7 °F 28.0 °F 89% 29.89 in 10.0 mi SSE 11.5 mph 18.4 mph N/A   Light Freezing Rain
7:35 PM 30.2 °F 21.9 °F 28.8 °F 94% 29.88 in 2.0 mi SSE 9.2 mph - N/A Snow Light Snow
7:55 PM 30.2 °F 21.3 °F 28.9 °F 95% 29.88 in 3.0 mi SSE 10.4 mph - N/A Rain Light Freezing Rain
8:15 PM 30.2 °F 21.9 °F 28.8 °F 94% 29.88 in 5.0 mi SSE 9.2 mph - N/A Rain Light Freezing Rain
8:35 PM 30.6 °F 23.8 °F 28.4 °F 92% 29.88 in 10.0 mi South 6.9 mph - N/A Rain Light Freezing Rain
8:55 PM 30.0 °F 20.5 °F 27.5 °F 90% 29.88 in 10.0 mi South 11.5 mph - N/A   Light Freezing Rain
9:15 PM 30.0 °F 19.5 °F 27.3 °F 90% 29.88 in 10.0 mi SSE 13.8 mph - N/A   Light Freezing Rain
9:35 PM 29.8 °F 20.3 °F 26.8 °F 88% 29.87 in 10.0 mi South 11.5 mph - N/A   Light Freezing Rain
9:55 PM 29.7 °F 19.6 °F 27.0 °F 90% 29.87 in 10.0 mi SSE 12.7 mph 16.1 mph N/A Rain Light Freezing Rain
10:15 PM 29.3 °F 20.8 °F 27.5 °F 93% 29.86 in 2.5 mi South 9.2 mph - N/A Snow Light Snow
10:35 PM 28.9 °F 21.9 °F 27.5 °F 94% 29.85 in 4.0 mi South 6.9 mph - N/A Snow Light Snow
10:55 PM 29.3 °F 20.8 °F 27.7 °F 94% 29.85 in 7.0 mi South 9.2 mph - N/A Rain Light Freezing Rain
11:15 PM 30.2 °F 22.6 °F 28.4 °F 93% 29.84 in 10.0 mi South 8.1 mph - N/A   Light Freezing Rain
11:35 PM 29.3 °F 21.5 °F 27.9 °F 94% 29.84 in 7.0 mi South 8.1 mph - N/A Rain Light Freezing Rain
11:55 PM 29.7 °F 22.8 °F 27.9 °F 93% 29.84 in 7.0 mi South 6.9 mph - N/A Rain Light Freezing Rain